Location: Auckland
(36.8670°S, 174.7670°E)
Time: 21:48:42
(UTC+12:00)

Altair - Visible Passes

Search period start: 24 July 2019 00:00
Search period end: 03 August 2019 00:00
Orbit: 1501 x 1683 km, 47.2° (Epoch: 24 July)

Date Brightness Start Highest point End Pass type
(mag) Time Alt. Az. Time Alt. Az. Time Alt. Az.
24 Jul 8.8 03:01:12 32° SE 03:01:12 32° SE 03:06:28 10° ESE visible
24 Jul 7.6 04:59:14 43° SW 05:03:07 73° SSE 05:12:54 10° ENE visible
24 Jul 8.1 06:58:20 10° WSW 07:07:35 44° NW 07:16:29 10° NNE visible
25 Jul 9.2 02:37:31 24° ESE 02:37:31 24° ESE 02:41:08 10° ESE visible
25 Jul 7.7 04:35:33 55° SSW 04:37:52 69° SSE 04:47:40 10° ENE visible
25 Jul 8.0 06:33:35 12° WSW 06:42:29 48° NW 06:51:33 10° NNE visible
25 Jul 9.6 21:45:10 10° NNW 21:45:20 11° NNW 21:45:20 11° NNW visible
26 Jul 9.5 02:13:53 17° ESE 02:13:53 17° ESE 02:15:49 10° ESE visible
26 Jul 7.7 04:11:54 65° S 04:12:35 66° SSE 04:22:24 10° ENE visible
26 Jul 7.8 06:09:57 18° WSW 06:17:21 53° NW 06:26:37 10° NNE visible
26 Jul 9.3 21:20:11 10° NNW 21:22:06 17° NNW 21:22:06 17° NNW visible
27 Jul 9.8 01:50:17 11° ESE 01:50:17 11° ESE 01:50:29 10° ESE visible
27 Jul 7.9 03:48:19 61° SE 03:48:19 61° SE 03:57:08 10° ENE visible
27 Jul 7.7 05:46:22 27° WSW 05:52:13 57° NW 06:01:38 10° NNE visible
27 Jul 8.9 20:55:14 10° NNW 20:58:54 25° N 20:58:54 25° N visible
28 Jul 8.2 03:24:47 47° ESE 03:24:47 47° ESE 03:31:51 10° E visible
28 Jul 7.6 05:22:50 37° WSW 05:27:05 62° NW 05:36:37 10° NE visible
28 Jul 8.5 20:30:19 10° NNW 20:35:44 32° N 20:35:44 32° N visible
28 Jul 9.8 22:33:47 10° WNW 22:33:48 10° WNW 22:33:48 10° WNW visible
29 Jul 8.7 03:01:18 35° E 03:01:18 35° E 03:06:33 10° E visible
29 Jul 7.5 04:59:21 52° W 05:01:56 67° NW 05:11:35 10° NE visible
29 Jul 8.2 20:05:26 10° NNW 20:12:33 36° NNE 20:12:33 36° NNE visible
29 Jul 9.3 22:08:34 10° WNW 22:10:38 19° WNW 22:10:38 19° WNW visible
30 Jul 9.2 02:37:52 24° E 02:37:52 24° E 02:41:15 10° E visible
30 Jul 7.4 04:35:55 69° WNW 04:36:46 72° NW 04:46:31 10° NE visible
30 Jul 8.8 06:33:59 11° W 06:40:15 20° WNW 06:46:43 10° NNW visible
30 Jul 8.1 19:40:36 10° N 19:49:12 35° NE 19:49:23 35° NE visible
30 Jul 8.8 21:43:20 10° WNW 21:47:27 30° WNW 21:47:27 30° WNW visible
31 Jul 9.6 02:14:30 15° E 02:14:30 15° E 02:15:55 10° E visible
31 Jul 7.5 04:12:33 71° N 04:12:33 71° N 04:21:25 10° NE visible
31 Jul 8.6 06:10:37 16° W 06:15:12 23° NW 06:22:13 10° N visible
31 Jul 8.2 19:15:48 10° N 19:24:07 32° NE 19:26:12 30° ENE visible
31 Jul 8.3 21:18:08 10° NW 21:24:16 45° WNW 21:24:16 45° WNW visible
01 Aug 8.0 03:49:15 54° NE 03:49:15 54° NE 03:56:18 10° NE visible
01 Aug 8.5 05:47:18 22° WNW 05:50:09 25° NW 05:57:38 10° N visible
01 Aug 8.4 18:51:04 10° N 18:59:02 29° NE 19:02:59 22° E visible
01 Aug 7.7 20:52:58 10° NW 21:01:02 65° NW 21:01:02 65° NW visible
01 Aug 9.8 22:58:55 10° W 22:59:06 11° W 22:59:06 11° W visible
02 Aug 8.5 03:25:59 37° NE 03:25:59 37° NE 03:31:10 10° NE visible
02 Aug 8.3 05:24:03 28° WNW 05:25:05 28° NW 05:32:57 10° N visible
02 Aug 8.5 18:26:23 10° N 18:33:57 26° NE 18:39:43 16° E visible
02 Aug 7.4 20:27:49 10° NW 20:37:45 83° NE 20:37:47 83° NE visible
02 Aug 9.4 22:33:34 10° W 22:35:51 19° W 22:35:51 19° W visible
